User: anonymous   Login
Location: Unspecified
(0.0000°N, 0.0000°E)
Time: 11:55:36
(UTC+00:00)
Language:

N. Korean satellite - Orbit

View from above orbital plane
View from above orbital plane
View from above satellite
View from above satellite

Ground track
Ground track

The orbit data is extracted from the following two-line orbital elements,

1 39026U 12072A   14304.71214363  .00009038  00000-0  46071-3 0  1758
2 39026 097.3138 339.3078 0049405 315.3361 044.3897 15.15905472104043
Epoch (UTC): 31 October 2014 17:05:29
Eccentricity: 0.0049405
inclination: 97.3138°
perigee height: 484 km
apogee height: 552 km
right ascension of ascending node: 339.3078°
argument of perigee: 315.3361°
revolutions per day: 15.15905472
mean anomaly at epoch: 44.3897°
orbit number at epoch: 10404

The dashed part of the orbit path shows where the satellite is in the earth's shadow,  

DLR